Showing default

AETHER-7, 67378

Orbit data source: Space-Track

AETHER-7, 67378 is a payload satellite owned by Kepler Comms (CA) in SSO that was launched on Sun, 11 Jan 2026 UTC via an FALCON 9 launch vehicle from the Air Force Western Test Range (AFWTR). Payload-class satellites include a variety of spacecraft equipped with specific instruments for various scientific and technological missions. These include communications satellites like Starlink; space stations such as the ISS; scientific satellites like the Hubble; Earth observation satellites from companies like Planet Labs, Umbra, and HawkEye 360; GPS; miniature CubeSats for education and research; and military/defense satellites.

Loading next visibility...
Identifier
67378, 2026-004R
Orbit
SSO
Country
Flag of CACA
Related business
Manufacturer
Kepler Comms
Mission
Operational Commercial Communications
Bus & Motor
KEPLER GEN2B, Unknown motor
Mass
300 kg wet, 300 kg dry
Launch date (UTC)
2026-01-11 (4 months ago)
Launch vehicle
FALCON 9
Launch site
Air Force Western Test Range (AFWTR)
Object type
Payload
Rocket body
Debris
Shape & HBR
Box + 2 Pan, 7.6 m
Radar Cross Section
4.448 m²

Expand to show TLE details & history
Last TLE update: 12 hours ago

TLE from 12 hours ago
0 AETHER-7
1 67378U 26004R   26146.28142786  .00000697  00000-0  85152-4 0  9997
2 67378  97.8006 145.1594 0002970 169.2315 190.8965 14.86318216 20029
Epoch: 2026-05-26T06:45Z
TLE epoch observation values (Epoch: 2026-05-26T06:45:15.367Z)
Latitude
0.00002°
Longitude
159.98825°
Altitude
614.523 km
Speed
7.551 km/s
True Right ascension
09h 40m 38s
True Declination
0° 00' 00"
Sunlit
Object was in daylight at epoch
Visualization orbit readout
Latitude
Unknown
Longitude
Unknown
Altitude
Unknown
Speed
Unknown
Apparent Right ascension
Unknown
Apparent Declination
Unknown
Sunlit
N/A
Visualization observer readout
Local Sidereal Time
03:34:15
Azimuth
Unknown
Elevation
Unknown
Doppler factor
Unknown
Orbital elements
Apogee altitude
608.554 km
Perigee altitude
604.405 km
Semi-major axis
6,984.616 km
Eccentricity
0.0003
Inclination
97.8006°
RAAN
145.1594°
Arg. of periapsis
169.2315°
True anomaly
190.89007°
Mean anomaly
190.8965°
Eccentric anomaly
190.89328°
Mean motion
3.71817 °/min
Orbital period
96.82 mins
BSTAR
0.000085152
Loading maneuver chart data...
Computing Atmospheric mass density...
Loading historical data...
Loading historical data...
Loading historical data...
Loading historical data...
Loading historical data...
Loading historical data...
Loading historical data...

Documentation

Showing up to 5 results
|